Wind_Speed
14 13 13 13 13 13 13 14 14 14 13 14 14 14 15 15 16 16 16 17 18 18 18 19 19 20 20 20 20 19 20 20 20 20 21 21 21 22 22 21 21 21 21
14 13 13 12 12 13 13 14 14 14 14 14 15 15 15 16 17 18 17 18 18 19 19 19 20 20 21 21 21 21 21 21 21 21 22 23 23 24 24 24 24 23 23
14 14 13 13 13 14 14 14 14 14 14 15 15 16 16 16 17 18 18 19 19 20 20 20 21 21 22 22 22 22 23 23 22 22 23 24 24 24 24 24 25 25 25
15 14 13 14 14 14 15 15 14 14 15 15 16 16 16 17 17 18 19 19 20 20 20 21 21 22 23 24 23 22 23 24 24 24 24 24 25 25 25 25 26 26 27
16 15 14 14 14 14 14 14 14 15 15 16 16 17 17 17 18 18 19 20 21 21 21 21 21 22 23 24 24 24 25 26 26 26 26 26 26 26 26 26 27 27 27
16 15 14 14 14 14 15 15 16 16 16 17 17 17 17 17 18 18 19 21 22 22 22 23 24 24 24 24 24 25 26 27 28 28 28 28 28 28 28 28 28 29 29
15 16 15 15 15 15 15 16 16 16 17 18 18 18 18 18 18 19 20 21 22 23 24 24 25 25 25 25 26 26 26 27 28 28 29 30 30 30 29 29 30 30 31
17 16 16 16 15 16 16 16 16 17 17 18 19 19 19 19 20 21 22 22 23 24 24 25 26 26 25 26 26 27 27 27 27 28 30 30 30 30 30 31 31 33 33
16 16 16 16 16 15 16 16 16 17 17 18 19 19 20 21 22 22 22 23 23 23 24 24 25 25 25 26 27 27 27 28 29 30 31 31 31 31 31 32 33 34 34
17 17 17 16 16 16 16 16 17 18 18 18 19 20 20 21 21 22 22 23 22 22 23 24 24 25 25 27 28 28 28 29 30 31 32 32 32 33 33 34 35 36 36
18 18 18 18 17 17 17 17 18 18 19 20 20 21 21 21 21 22 22 22 22 22 23 24 25 26 26 27 27 27 28 29 30 31 32 32 33 35 36 36 37 37 38
18 19 19 19 18 18 18 18 18 19 20 21 21 21 21 22 22 22 23 23 23 23 24 25 26 26 27 28 28 28 29 29 30 31 32 33 34 35 36 36 37 38 39
17 17 18 18 19 19 19 19 20 20 21 21 21 22 22 23 23 23 23 24 25 25 25 26 26 26 27 28 28 29 29 29 31 32 33 34 35 35 36 37 38 39 40
18 18 19 20 21 21 21 21 21 21 22 22 23 23 22 22 23 23 24 25 26 26 26 27 27 27 28 28 28 29 30 31 32 32 33 34 35 36 37 38 39 40 41
19 20 20 20 21 21 21 21 22 22 22 23 23 23 23 23 23 24 24 25 25 26 26 27 27 27 27 28 29 29 30 31 32 33 34 35 36 38 39 40 41 41 42
20 21 21 21 21 20 20 21 21 22 22 24 24 23 23 24 24 25 25 25 26 26 27 27 27 27 28 28 29 31 32 32 33 34 35 36 37 38 39 41 42 42 42
20 21 21 21 21 21 21 22 22 23 24 24 24 23 24 24 24 25 25 26 27 27 28 28 29 29 29 30 31 32 33 34 35 36 37 38 38 39 40 41 42 42 43
20 21 21 22 22 22 23 23 24 25 25 24 23 24 24 25 26 26 26 27 28 28 29 29 30 30 31 32 33 34 34 35 36 37 38 39 40 41 41 42 42 42 41
21 21 21 22 23 23 23 24 24 24 24 24 23 24 25 26 26 27 27 28 28 29 29 30 31 32 33 34 35 36 36 37 37 38 39 40 41 41 41 41 41 40 40
22 22 22 22 22 22 22 23 23 24 24 24 24 25 26 27 28 28 29 29 30 30 31 32 32 33 34 35 36 37 37 37 38 38 38 39 40 40 39 39 39 40 40
22 22 21 21 22 22 22 23 23 24 24 24 25 25 26 27 28 29 30 31 31 32 33 33 33 35 35 36 36 37 37 37 38 38 39 39 39 39 39 39 40 40 41
21 21 21 21 22 22 22 23 23 23 24 24 25 25 26 27 28 29 30 31 32 32 33 33 34 34 34 34 35 35 36 36 37 37 38 38 39 39 39 39 39 39 40
20 20 20 21 21 21 21 22 22 23 23 24 25 26 27 28 29 29 30 31 31 32 32 32 32 33 33 34 34 35 36 36 37 38 38 39 39 40 40 40 39 39 39
19 19 19 19 20 21 22 22 23 23 24 25 26 27 28 29 30 30 30 31 31 31 31 31 31 32 33 33 34 34 35 35 36 37 37 38 39 39 39 39 38 38 38
18 18 18 19 20 20 21 22 23 24 25 26 26 27 28 29 30 30 30 30 31 31 31 31 31 32 33 33 34 35 36 36 37 38 38 39 39 39 39 38 37 37 37
17 17 18 18 19 19 20 22 23 24 25 26 27 28 28 29 29 29 29 30 30 31 31 32 33 34 34 35 36 36 37 37 38 38 38 38 38 38 37 37 36 35 35
Wind_Direction
270 269 272 269 267 267 266 267 266 265 262 257 256 257 258 259 261 263 264 265 268 271 274 274 275 274 274 272 272 271 272 274 276 278 277 279 279 279 279 278 279 280 282
272 271 270 267 265 267 267 266 265 265 262 259 259 260 261 261 263 265 267 269 271 272 275 276 276 275 273 272 271 271 272 274 276 277 277 280 281 280 278 277 278 280 281
270 270 267 267 268 268 266 263 264 264 263 261 261 263 263 265 269 270 271 273 274 274 274 275 276 277 275 274 273 272 272 273 275 277 278 280 283 283 281 279 278 279 280
267 267 266 267 268 265 264 264 265 267 267 264 264 265 265 268 272 273 272 274 276 277 277 277 277 276 275 275 274 275 275 274 275 276 277 280 283 283 281 279 279 279 279
264 264 268 269 267 266 266 263 263 267 268 267 266 268 268 271 275 275 274 275 277 277 278 278 278 277 277 276 275 276 275 275 275 276 277 278 281 282 282 282 280 280 280
265 264 265 268 266 263 266 265 263 267 268 269 270 271 273 276 276 276 276 277 278 278 278 278 280 278 278 277 277 277 275 275 275 276 277 278 280 282 282 281 281 280 281
269 266 264 264 264 264 266 267 266 269 271 270 272 273 275 277 278 279 279 279 280 281 279 280 281 280 280 280 280 279 279 277 275 275 277 278 279 279 279 281 281 281 282
268 267 266 262 263 265 268 268 268 268 270 273 273 276 277 277 277 279 280 281 282 282 280 281 282 280 280 280 280 280 279 278 277 277 278 278 278 278 279 280 282 283 284
266 266 266 265 265 267 269 270 270 272 273 276 274 276 277 278 279 280 281 282 282 282 281 282 284 286 283 283 283 282 280 279 278 278 279 278 278 278 279 281 282 283 285
263 264 264 266 265 268 270 273 273 273 276 277 277 276 278 278 278 280 283 283 282 281 282 283 285 286 286 285 285 283 281 280 279 279 279 279 278 280 281 282 284 284 286
259 261 262 264 266 268 271 274 276 276 276 277 278 278 279 278 278 280 282 286 284 283 285 286 287 287 287 287 287 284 282 281 280 282 282 281 281 283 284 284 284 284 286
259 261 262 262 266 269 274 277 278 278 278 280 280 280 281 280 281 282 282 285 286 287 288 289 289 288 288 288 287 285 283 282 281 283 284 283 284 284 284 284 285 286 287
263 262 262 264 267 271 275 278 278 279 279 281 282 282 281 281 281 283 284 285 286 289 291 292 291 290 289 290 288 287 284 283 284 285 286 286 286 286 286 286 286 286 287
260 261 264 266 269 271 273 277 277 277 279 280 279 279 281 282 283 284 285 285 287 289 291 291 291 291 290 290 289 288 287 286 287 287 287 287 288 288 288 288 287 288 289
260 262 265 267 270 271 273 275 276 277 279 279 278 278 280 281 283 285 286 287 288 289 289 290 291 291 291 290 290 290 290 290 290 290 289 288 289 289 289 289 289 289 289
261 263 265 267 269 271 272 274 276 277 277 279 279 278 280 283 284 284 287 289 290 290 290 290 291 292 292 292 291 291 291 291 292 292 292 292 292 292 292 291 291 291 291
264 265 265 266 267 269 273 276 277 277 278 279 279 279 281 283 285 287 289 289 290 291 290 291 292 291 291 291 292 292 292 292 293 294 294 293 293 293 293 293 293 293 292
263 265 266 267 269 270 274 276 276 276 277 278 278 280 281 283 285 287 289 289 290 290 291 292 292 291 291 292 293 294 294 294 294 294 294 295 296 295 294 294 295 294 293
263 264 267 270 272 272 274 275 276 277 278 278 280 282 282 283 285 286 288 291 292 291 291 292 292 292 293 294 295 295 295 295 295 295 295 296 297 297 297 297 297 296 296
264 266 268 271 273 274 274 274 276 276 278 281 282 284 285 285 286 287 288 290 292 293 293 293 294 294 294 295 295 296 296 296 297 297 298 298 299 299 299 299 299 299 299
266 266 267 269 272 273 273 274 276 279 280 281 283 285 286 287 288 289 289 291 292 294 296 296 296 295 295 295 296 298 298 299 299 300 300 301 301 301 301 301 301 301 301
265 267 269 271 272 273 275 277 279 280 281 283 283 284 285 287 290 292 292 292 294 296 297 298 298 297 296 296 297 298 299 300 301 301 302 302 302 302 302 302 302 302 302
265 268 272 273 273 275 277 279 281 282 284 285 286 287 288 290 292 293 294 295 296 297 297 296 297 297 297 298 298 299 300 301 301 302 303 305 305 304 303 303 303 302 302
267 270 273 274 276 278 279 281 283 284 286 287 288 289 290 291 293 293 294 295 296 298 298 298 297 298 299 300 300 300 300 301 302 303 304 306 307 306 306 305 304 303 303
270 272 275 277 278 279 281 282 284 286 288 289 290 291 292 293 294 295 296 297 297 298 298 299 300 301 302 301 301 301 301 302 302 303 305 306 307 306 306 306 306 305 304
273 275 278 279 280 282 284 285 287 288 290 291 293 294 295 295 296 297 298 299 299 299 299 300 301 301 302 302 302 302 302 303 303 304 305 306 307 307 307 307 307 306 306
Height
5865 5865 5866 5866 5866 5867 5867 5868 5868 5868 5869 5869 5869 5870 5870 5870 5871 5871 5871 5872 5872 5872 5872 5872 5872 5872 5871 5871 5871 5871 5871 5870 5870 5870 5869 5868 5867 5866 5866 5865 5864 5864 5863
5862 5862 5862 5862 5863 5863 5864 5864 5865 5865 5865 5866 5866 5867 5867 5867 5867 5867 5867 5868 5868 5868 5868 5868 5867 5867 5867 5866 5866 5866 5865 5865 5865 5864 5864 5863 5862 5861 5860 5859 5859 5858 5857
5859 5859 5859 5859 5860 5860 5860 5861 5861 5862 5862 5862 5863 5863 5863 5863 5863 5863 5863 5863 5863 5863 5863 5863 5862 5862 5861 5861 5861 5860 5860 5859 5859 5859 5858 5857 5856 5855 5854 5853 5853 5852 5851
5855 5855 5855 5856 5856 5856 5857 5857 5858 5858 5858 5858 5859 5859 5859 5860 5859 5859 5859 5858 5858 5858 5858 5857 5857 5856 5856 5855 5855 5855 5854 5854 5853 5853 5852 5851 5850 5849 5848 5847 5846 5845 5844
5852 5852 5852 5852 5853 5853 5853 5853 5854 5854 5854 5855 5855 5855 5855 5855 5855 5854 5854 5853 5853 5853 5852 5852 5851 5850 5850 5849 5849 5848 5848 5847 5847 5846 5846 5845 5844 5843 5842 5840 5839 5838 5837
5848 5848 5849 5849 5849 5849 5850 5850 5850 5850 5851 5851 5851 5851 5851 5851 5850 5850 5849 5849 5848 5847 5847 5846 5845 5844 5843 5843 5842 5842 5841 5840 5840 5839 5839 5838 5837 5836 5835 5833 5832 5831 5830
5845 5845 5845 5845 5845 5846 5846 5846 5847 5846 5846 5846 5847 5847 5846 5846 5845 5845 5844 5843 5842 5842 5841 5840 5839 5837 5836 5836 5835 5834 5833 5833 5832 5832 5831 5830 5829 5828 5827 5826 5824 5823 5822
5840 5841 5841 5841 5842 5842 5842 5843 5843 5842 5842 5842 5842 5842 5842 5841 5840 5839 5838 5837 5836 5835 5834 5833 5832 5830 5829 5829 5828 5827 5826 5825 5824 5824 5823 5822 5821 5820 5819 5817 5816 5815 5813
5835 5836 5837 5837 5838 5838 5839 5839 5839 5838 5838 5837 5836 5837 5836 5835 5834 5834 5832 5831 5830 5829 5827 5826 5825 5824 5823 5822 5821 5820 5818 5817 5816 5815 5814 5813 5812 5811 5810 5809 5807 5806 5804
5831 5831 5832 5833 5834 5834 5834 5834 5834 5833 5833 5833 5832 5832 5831 5830 5829 5828 5827 5825 5823 5822 5821 5820 5819 5817 5816 5814 5813 5812 5811 5810 5808 5807 5805 5804 5803 5802 5800 5799 5798 5796 5794
5826 5826 5827 5828 5829 5830 5830 5830 5829 5829 5828 5828 5827 5826 5826 5825 5824 5823 5821 5819 5817 5816 5815 5814 5812 5810 5809 5807 5806 5804 5803 5802 5800 5799 5797 5796 5794 5793 5791 5790 5788 5786 5784
5821 5822 5822 5823 5824 5825 5825 5825 5824 5824 5823 5822 5821 5820 5820 5819 5818 5816 5815 5814 5812 5811 5809 5807 5805 5804 5802 5800 5798 5796 5795 5794 5792 5790 5789 5787 5785 5784 5782 5780 5777 5775 5773
5816 5817 5818 5819 5819 5819 5820 5819 5819 5818 5817 5817 5815 5815 5814 5813 5811 5810 5809 5807 5805 5804 5802 5801 5799 5797 5795 5793 5791 5789 5787 5785 5784 5782 5780 5778 5776 5774 5771 5769 5767 5764 5761
5812 5813 5813 5814 5814 5814 5814 5814 5813 5812 5812 5811 5809 5808 5808 5806 5805 5804 5802 5801 5799 5797 5795 5793 5792 5790 5788 5786 5783 5781 5779 5777 5775 5773 5771 5769 5766 5764 5761 5758 5756 5753 5750
5807 5808 5808 5808 5809 5809 5808 5808 5807 5806 5806 5804 5803 5802 5801 5800 5799 5797 5796 5794 5792 5790 5788 5786 5784 5782 5780 5778 5775 5773 5771 5769 5767 5764 5762 5759 5757 5754 5751 5748 5745 5741 5738
5801 5802 5802 5802 5803 5803 5802 5801 5801 5800 5799 5798 5797 5796 5795 5794 5792 5791 5789 5787 5785 5783 5781 5779 5777 5775 5773 5770 5768 5766 5763 5760 5758 5755 5752 5749 5746 5743 5740 5736 5733 5729 5726
5795 5796 5796 5796 5796 5796 5796 5795 5795 5794 5793 5792 5791 5789 5788 5787 5785 5784 5782 5780 5778 5776 5774 5772 5770 5767 5765 5763 5760 5757 5755 5752 5749 5746 5742 5739 5736 5732 5729 5725 5721 5717 5714
5789 5790 5790 5790 5790 5790 5789 5789 5788 5787 5787 5785 5784 5783 5781 5780 5778 5776 5775 5773 5771 5769 5766 5764 5762 5759 5757 5754 5751 5748 5745 5742 5739 5735 5732 5728 5725 5721 5717 5713 5709 5705 5701
5783 5783 5784 5784 5783 5783 5782 5782 5781 5780 5779 5778 5777 5776 5774 5773 5771 5769 5767 5765 5763 5761 5758 5756 5753 5751 5748 5745 5742 5739 5736 5732 5729 5725 5721 5717 5713 5709 5705 5701 5697 5693 5689
5777 5777 5778 5778 5777 5776 5776 5775 5774 5773 5773 5771 5770 5769 5767 5766 5764 5762 5760 5758 5755 5753 5750 5748 5745 5742 5739 5736 5733 5729 5726 5722 5718 5714 5710 5706 5702 5698 5694 5690 5686 5682 5678
5771 5771 5771 5771 5771 5770 5769 5768 5767 5766 5765 5764 5763 5761 5760 5758 5756 5754 5752 5750 5747 5745 5742 5739 5736 5733 5730 5726 5723 5720 5716 5712 5708 5704 5700 5696 5692 5688 5683 5679 5675 5671 5666
5765 5765 5764 5764 5764 5763 5762 5761 5760 5759 5758 5757 5756 5754 5752 5751 5749 5746 5744 5742 5739 5736 5733 5729 5726 5723 5719 5716 5713 5710 5707 5703 5699 5694 5690 5686 5682 5677 5673 5668 5664 5659 5655
5759 5758 5758 5758 5757 5757 5756 5755 5754 5753 5751 5750 5748 5747 5745 5743 5741 5738 5736 5733 5730 5727 5723 5720 5717 5714 5710 5707 5704 5701 5697 5693 5689 5685 5681 5676 5672 5667 5662 5658 5653 5649 5645
5753 5753 5752 5752 5751 5750 5749 5748 5747 5746 5744 5743 5741 5739 5737 5735 5733 5730 5727 5725 5722 5718 5715 5711 5708 5705 5702 5698 5695 5691 5688 5684 5680 5675 5671 5666 5662 5657 5652 5647 5643 5638 5634
5747 5747 5747 5746 5745 5744 5743 5742 5740 5739 5737 5735 5733 5731 5729 5727 5724 5722 5719 5716 5713 5710 5706 5703 5700 5696 5693 5689 5686 5682 5678 5674 5670 5665 5661 5656 5651 5647 5642 5637 5632 5628 5624
5742 5741 5741 5740 5739 5738 5737 5735 5734 5732 5730 5728 5726 5724 5721 5719 5716 5713 5710 5708 5705 5701 5698 5695 5691 5688 5684 5680 5676 5672 5668 5664 5660 5655 5651 5646 5641 5637 5632 5627 5623 5618 5614